Location: Quebec
(46.8000°N, 71.2500°W)
Time: 00:52:56
(UTC-04:00)

Envisat - Pass Details

Date: 15 October 2017
Orbit: 764 x 766 km, 98.2° (Epoch: 20 October)

Event Time Altitude Azimuth Distance (km) Brightness Sun altitude
Exits shadow 19:43:02 36° 91° (E) 1,208 3.5 -18.8°
Maximum altitude 19:43:55 39° 67° (ENE) 1,147 3.5 -19.0°
Drops below altitude 10° 19:48:37 10° 0° (N) 2,313 5.6 -19.8°
Sets 19:51:02 0° 353° (N) 3,243 6.4 -20.2°
